Overview Statistics Trail Chart Weather Telemetry Raw packets
 

This is the latest recevied weather packets stored in our database for station/object KI5QCM-13. If no packets are shown the sender has not sent any weather packets the latest 10 day(s).

<< 1 2 3 4 5 6 7 >>
Time Temp. Humidity Pressure Rain* Wind** Luminosity Snow
1788399028 30° C 60% 1011.6 hPa 0 mm - 0 W/m² -
1788398454 31.11° C 57% 1011.5 hPa 0 mm - 0 W/m² -
1788397861 31.67° C 54% 1011.5 hPa 0 mm - 0 W/m² -
1788397221 32.78° C 51% 1011.4 hPa 0 mm - 0 W/m² -
1788396628 33.89° C 49% 1011.4 hPa 0 mm - 3 W/m² -
1788396053 34.44° C 47% 1011.5 hPa 0 mm - 9 W/m² -
1788395478 35° C 45% 1011.6 hPa 0 mm - 15 W/m² -
1788394833 35.56° C 44% 1011.6 hPa 0 mm - 21 W/m² -
1788394261 35.56° C 43% 1011.5 hPa 0 mm - 30 W/m² -
1788393653 36.11° C 41% 1011.5 hPa 0 mm - 34 W/m² -
1788393077 36.67° C 40% 1011.7 hPa 0 mm - 40 W/m² -
1788392437 36.67° C 40% 1011.7 hPa 0 mm - 63 W/m² -
1788391861 37.22° C 38% 1011.7 hPa 0 mm - 99 W/m² -
1788391221 37.22° C 39% 1011.7 hPa 0 mm - 108 W/m² -
1788390629 37.78° C 39% 1011.8 hPa 0 mm - 146 W/m² -
1788390053 37.78° C 39% 1012 hPa 0 mm - 187 W/m² -
1788389477 37.78° C 39% 1012.1 hPa 0 mm - 219 W/m² -
1788388833 37.78° C 39% 1012 hPa 0 mm - 252 W/m² -
1788388261 38.33° C 38% 1012 hPa 0 mm - 281 W/m² -
1788387621 38.33° C 39% 1012.1 hPa 0 mm - 316 W/m² -
1788387034 38.89° C 39% 1012.2 hPa 0 mm - 341 W/m² -
1788386469 38.33° C 40% 1012.2 hPa 0 mm - 383 W/m² -
1788385861 38.33° C 40% 1012.3 hPa 0 mm - 394 W/m² -
1788385269 38.33° C 39% 1012.2 hPa 0 mm - 442 W/m² -
1788384629 38.33° C 38% 1012.4 hPa 0 mm - 479 W/m² -

* Rain latest hour (hover to see other rain measurements)
** Current wind speed in m/s (hover to see current wind gust speed)